Weather History for Highgate, VT

Change the Weather History Date:

Tuesday, October 29, 2013

  Actual Average (KPBG) Record (KPBG)
Temperature  
Mean Temperature 32 °F 43 °F  
Max Temperature 41 °F 53 °F 70 °F (1971)
Min Temperature 23 °F 33 °F 20 °F (2013)
Degree Days  
Heating Degree Days 33 22  
Month to date heating degree days 501  
Since 1 July heating degree days 736  
Cooling Degree Days 0 0  
Month to date cooling degree days 0  
Year to date cooling degree days 345  
Moisture  
Dew Point 24 °F    
Average Humidity 76    
Maximum Humidity 91    
Minimum Humidity 51    
Precipitation  
Precipitation 0.00 in - 0.72 in (1958)
Month to date precipitation  
Year to date precipitation  
Sea Level Pressure  
Sea Level Pressure 30.42 in    
Wind  
Wind Speed 1 mph (NNW)    
Max Wind Speed 7 mph    
Max Gust Speed -    
Visibility 10 miles    
Events      
T = Trace of Precipitation, MM = Missing Value Source: NWS Daily Summary

Daily Weather History Graph

Daily Weather History Graph

Search for Another Location

Airport:

Trip Planner

Search our weather history database for the weather conditions in past years. The results will help you decide how hot, cold, wet, or windy it might be!

Date:

Astronomy

Oct. 29, 2013 Rise Set
Actual Time 7:26 AM EDT 5:44 PM EDT
Civil Twilight 6:56 AM EDT 6:14 PM EDT
Nautical Twilight 6:22 AM EDT 6:49 PM EDT
Astronomical Twilight 5:47 AM EDT 7:23 PM EDT
Moon 2:01 AM EDT (10/29) 3:08 PM EDT (10/29)
Length of Visible Light 11h 18m
Length of Day
10h 17m
Waning Crescent, 25% of the Moon is Illuminated
Oct 29
Waning Crescent
Nov 3
New
Nov 10
First Quarter
Nov 17
Full
Nov 25
Last Quarter

Hourly Weather History & Observations

Time (EDT) Temp. Windchill Dew Point Humidity Pressure Visibility Wind Dir Wind Speed Gust Speed Precip Events Conditions
12:15 AM 30.0 °F - 25.7 °F 84% 30.40 in 10.0 mi Calm Calm - N/A   Clear
12:35 AM 28.4 °F - 24.4 °F 85% 30.41 in 10.0 mi Calm Calm - N/A   Clear
12:55 AM 27.1 °F - 23.4 °F 86% 30.41 in 10.0 mi Calm Calm - N/A   Clear
1:15 AM 26.8 °F - 23.5 °F 88% 30.41 in 10.0 mi Calm Calm - N/A   Clear
1:35 AM 27.5 °F 23.6 °F 24.3 °F 88% 30.41 in 10.0 mi SE 3.5 mph - N/A   Clear
1:55 AM 26.6 °F - 23.4 °F 88% 30.41 in 10.0 mi Calm Calm - N/A   Clear
2:15 AM 25.9 °F - 22.8 °F 88% 30.41 in 10.0 mi Calm Calm - N/A   Clear
2:35 AM 25.7 °F - 22.8 °F 89% 30.41 in 10.0 mi Calm Calm - N/A   Clear
2:55 AM 25.7 °F - 23.0 °F 89% 30.41 in 10.0 mi Calm Calm - N/A   Clear
3:15 AM 26.1 °F 21.9 °F 23.0 °F 88% 30.41 in 10.0 mi SE 3.5 mph - N/A   Clear
3:35 AM 25.2 °F - 22.3 °F 89% 30.41 in 10.0 mi Calm Calm - N/A   Clear
3:55 AM 25.7 °F - 23.0 °F 89% 30.41 in 10.0 mi Calm Calm - N/A   Clear
4:15 AM 25.7 °F - 22.8 °F 89% 30.41 in 10.0 mi Calm Calm - N/A   Clear
4:35 AM 24.4 °F - 21.6 °F 89% 30.41 in 10.0 mi Calm Calm - N/A   Clear
4:55 AM 23.7 °F - 20.8 °F 89% 30.42 in 10.0 mi Calm Calm - N/A   Clear
5:15 AM 24.3 °F - 21.7 °F 90% 30.43 in 10.0 mi Calm Calm - N/A   Clear
5:35 AM 23.9 °F - 21.6 °F 91% 30.43 in 10.0 mi Calm Calm - N/A   Clear
5:55 AM 23.9 °F - 21.2 °F 89% 30.44 in 10.0 mi Calm Calm - N/A   Clear
6:15 AM 23.4 °F - 20.8 °F 90% 30.45 in 10.0 mi Calm Calm - N/A   Clear
6:35 AM 23.4 °F - 20.7 °F 89% 30.45 in 10.0 mi Calm Calm - N/A   Clear
6:55 AM 23.0 °F - 20.3 °F 89% 30.45 in 10.0 mi Calm Calm - N/A   Clear
7:15 AM 23.4 °F - 20.7 °F 89% 30.46 in 10.0 mi Calm Calm - N/A   Clear
7:35 AM 23.4 °F - 20.8 °F 90% 30.46 in 10.0 mi Calm Calm - N/A   Clear
7:55 AM 23.9 °F - 21.4 °F 90% 30.46 in 10.0 mi Calm Calm - N/A   Clear
8:15 AM 25.9 °F - 23.4 °F 90% 30.47 in 10.0 mi Calm Calm - N/A   Clear
8:35 AM 28.4 °F - 25.7 °F 90% 30.48 in 10.0 mi Calm Calm - N/A   Clear
9:15 AM 30.9 °F - 28.0 °F 89% 30.49 in 10.0 mi Calm Calm - N/A   Overcast
9:35 AM 32.7 °F - 30.0 °F 90% 30.48 in 10.0 mi Calm Calm - N/A   Overcast
9:55 AM 35.6 °F 32.8 °F 31.1 °F 84% 30.48 in 10.0 mi West 3.5 mph - N/A   Overcast
10:15 AM 35.6 °F - 30.0 °F 80% 30.48 in 10.0 mi Calm Calm - N/A   Overcast
10:35 AM 35.6 °F - 29.3 °F 78% 30.47 in 10.0 mi Calm Calm - N/A   Overcast
10:55 AM 35.6 °F - 27.7 °F 73% 30.47 in 10.0 mi Calm Calm - N/A   Overcast
11:15 AM 35.6 °F 31.7 °F 25.0 °F 65% 30.47 in 10.0 mi NW 4.6 mph - N/A   Overcast
11:35 AM 36.5 °F 33.9 °F 24.8 °F 63% 30.48 in 10.0 mi NW 3.5 mph - N/A   Overcast
11:55 AM 37.8 °F 33.3 °F 25.2 °F 60% 30.48 in 10.0 mi West 5.8 mph - N/A   Overcast
12:15 PM 38.3 °F 33.9 °F 25.5 °F 60% 30.48 in 10.0 mi WNW 5.8 mph - N/A   Overcast
12:35 PM 38.5 °F 34.1 °F 24.6 °F 58% 30.48 in 10.0 mi NW 5.8 mph - N/A   Overcast
12:55 PM 38.3 °F 33.2 °F 25.2 °F 59% 30.46 in 10.0 mi North 6.9 mph - N/A   Scattered Clouds
1:15 PM 41.0 °F 39.0 °F 24.8 °F 53% 30.45 in 10.0 mi North 3.5 mph - N/A   Scattered Clouds
1:35 PM 40.8 °F 36.9 °F 25.0 °F 53% 30.45 in 10.0 mi North 5.8 mph - N/A   Scattered Clouds
1:55 PM 41.0 °F 39.0 °F 24.3 °F 51% 30.44 in 10.0 mi WNW 3.5 mph - N/A   Scattered Clouds
2:15 PM 41.0 °F - 24.4 °F 52% 30.44 in 10.0 mi Calm Calm - N/A   Clear
2:35 PM 41.0 °F - 24.6 °F 52% 30.44 in 10.0 mi Calm Calm - N/A   Clear
2:55 PM 39.6 °F - 24.4 °F 55% 30.43 in 10.0 mi Calm Calm - N/A   Clear
3:15 PM 40.8 °F - 25.0 °F 53% 30.42 in 10.0 mi Calm Calm - N/A   Clear
3:35 PM 41.0 °F 39.0 °F 25.0 °F 53% 30.41 in 10.0 mi North 3.5 mph - N/A   Clear
3:55 PM 41.0 °F - 24.6 °F 52% 30.39 in 10.0 mi Calm Calm - N/A   Clear
4:15 PM 41.0 °F - 24.8 °F 53% 30.39 in 10.0 mi Calm Calm - N/A   Clear
4:35 PM 41.0 °F - 24.3 °F 51% 30.39 in 10.0 mi Calm Calm - N/A   Clear
4:55 PM 41.0 °F - 24.4 °F 52% 30.39 in 10.0 mi Calm Calm - N/A   Clear
5:15 PM 38.3 °F - 23.4 °F 55% 30.40 in 10.0 mi Calm Calm - N/A   Clear
5:35 PM 37.2 °F - 24.4 °F 60% 30.40 in 10.0 mi Calm Calm - N/A   Clear
5:55 PM 35.6 °F - 23.9 °F 62% 30.39 in 10.0 mi Calm Calm - N/A   Clear
6:15 PM 35.6 °F - 25.9 °F 68% 30.40 in 10.0 mi Calm Calm - N/A   Clear
6:35 PM 33.1 °F - 24.4 °F 71% 30.40 in 10.0 mi Calm Calm - N/A   Clear
6:55 PM 32.5 °F - 25.2 °F 74% 30.41 in 10.0 mi Calm Calm - N/A   Clear
7:15 PM 30.9 °F - 24.1 °F 76% 30.41 in 10.0 mi Calm Calm - N/A   Clear
7:35 PM 30.9 °F 27.5 °F 24.6 °F 77% 30.41 in 10.0 mi SE 3.5 mph - N/A   Clear
7:55 PM 30.9 °F 27.5 °F 25.2 °F 79% 30.40 in 10.0 mi ESE 3.5 mph - N/A   Clear
8:15 PM 30.9 °F - 24.8 °F 78% 30.38 in 10.0 mi Calm Calm - N/A   Clear
8:35 PM 30.9 °F 27.5 °F 25.3 °F 80% 30.38 in 10.0 mi SSE 3.5 mph - N/A   Clear
8:55 PM 30.9 °F - 25.7 °F 81% 30.37 in 10.0 mi Calm Calm - N/A   Clear
9:15 PM 30.9 °F - 25.3 °F 80% 30.37 in 10.0 mi Calm Calm - N/A   Clear
9:35 PM 30.9 °F - 25.2 °F 79% 30.37 in 10.0 mi Calm Calm - N/A   Clear
9:55 PM 30.9 °F - 25.5 °F 80% 30.37 in 10.0 mi Calm Calm - N/A   Clear
10:15 PM 30.9 °F - 25.5 °F 80% 30.36 in 10.0 mi Calm Calm - N/A   Clear
10:35 PM 30.9 °F - 25.7 °F 81% 30.36 in 10.0 mi Calm Calm - N/A   Clear
10:55 PM 30.9 °F - 25.7 °F 81% 30.37 in 10.0 mi Calm Calm - N/A   Clear
11:15 PM 30.9 °F 27.5 °F 26.1 °F 82% 30.36 in 10.0 mi East 3.5 mph - N/A   Clear
11:35 PM 30.9 °F - 26.4 °F 83% 30.35 in 10.0 mi Calm Calm - N/A   Clear
11:55 PM 30.9 °F 27.5 °F 26.2 °F 83% 30.34 in 10.0 mi SE 3.5 mph - N/A   Clear